TimeEST,TemperatureF,Dew PointF,Humidity,Sea Level PressureIn,VisibilityMPH,Wind Direction,Wind SpeedMPH,Gust SpeedMPH,PrecipitationIn,Events,Conditions,WindDirDegrees,DateUTC
12:15 AM,33.8,30.2,87,30.07,3.0,NW,6.9,-,0.00,Snow,Light Snow,320,2013-03-08 05:15:00
12:31 AM,33.8,30.2,87,30.06,3.0,NW,5.8,-,0.00,Snow,Light Snow,320,2013-03-08 05:31:00
12:49 AM,33.8,30.2,87,30.06,2.5,NW,3.5,-,0.00,Snow,Light Snow,310,2013-03-08 05:49:00
12:53 AM,33.1,30.9,92,30.07,2.5,WNW,4.6,-,0.00,Snow,Light Snow,300,2013-03-08 05:53:00
1:09 AM,33.8,30.2,87,30.06,3.0,NW,6.9,-,0.00,Snow,Light Snow,320,2013-03-08 06:09:00
1:31 AM,33.8,30.2,87,30.06,2.5,NW,4.6,-,0.00,Snow,Light Snow,320,2013-03-08 06:31:00
1:53 AM,33.1,30.9,92,30.06,2.5,NNW,8.1,-,0.00,Snow,Light Snow,330,2013-03-08 06:53:00
2:46 AM,32.0,28.4,87,30.03,3.0,NNW,9.2,-,0.01,Snow,Light Snow,330,2013-03-08 07:46:00
2:53 AM,32.0,28.9,88,30.04,3.0,NW,8.1,-,0.01,Snow,Light Snow,320,2013-03-08 07:53:00
3:05 AM,32.0,28.4,87,30.03,2.0,NW,9.2,-,0.00,Snow,Light Snow,320,2013-03-08 08:05:00
3:21 AM,32.0,28.4,87,30.02,3.0,NNW,8.1,-,0.00,Snow,Light Snow,330,2013-03-08 08:21:00
3:53 AM,32.0,28.9,88,30.03,4.0,NNW,8.1,-,0.00,Snow,Light Snow,330,2013-03-08 08:53:00
4:11 AM,32.0,28.4,87,30.02,2.0,NNW,6.9,-,0.00,Snow,Light Snow,330,2013-03-08 09:11:00
4:20 AM,32.0,28.4,87,30.02,1.8,NNW,9.2,-,0.00,Snow,Light Snow,330,2013-03-08 09:20:00
4:31 AM,32.0,28.4,87,30.02,1.8,NNW,8.1,-,0.00,Snow,Light Snow,330,2013-03-08 09:31:00
4:34 AM,32.0,28.4,87,30.02,2.0,NW,6.9,-,0.00,Snow,Light Snow,320,2013-03-08 09:34:00
4:46 AM,32.0,28.4,87,30.02,3.0,NNW,6.9,-,0.00,Snow,Light Snow,330,2013-03-08 09:46:00
4:53 AM,32.0,28.9,88,30.03,2.5,NNW,6.9,-,0.00,Snow,Light Snow,330,2013-03-08 09:53:00
5:07 AM,30.2,28.4,93,30.02,1.5,NNW,6.9,-,0.00,Snow,Light Snow,330,2013-03-08 10:07:00
5:19 AM,30.2,28.4,93,30.02,2.0,NNW,9.2,-,0.00,Snow,Light Snow,330,2013-03-08 10:19:00
5:34 AM,30.2,28.4,93,30.02,1.5,North,8.1,-,0.00,Snow,Light Snow,350,2013-03-08 10:34:00
5:53 AM,30.9,28.0,89,30.03,1.8,NNW,10.4,-,0.00,Snow,Light Snow,330,2013-03-08 10:53:00
6:30 AM,30.2,28.4,93,30.02,1.2,NNW,10.4,-,0.00,Snow,Light Snow,330,2013-03-08 11:30:00
6:53 AM,30.9,28.0,89,30.04,0.5,NNW,9.2,-,0.00,Fog-Snow,Snow,340,2013-03-08 11:53:00
7:21 AM,30.2,28.4,93,30.03,0.8,NNW,6.9,-,0.00,Snow,Light Snow,330,2013-03-08 12:21:00
7:48 AM,30.2,28.4,93,30.03,1.8,NNW,8.1,-,0.00,Snow,Light Snow,330,2013-03-08 12:48:00
7:53 AM,30.9,28.0,89,30.04,1.8,NNW,11.5,-,0.00,Snow,Light Snow,330,2013-03-08 12:53:00
8:04 AM,30.2,28.4,93,30.04,3.0,NNW,10.4,-,0.00,Snow,Light Snow,330,2013-03-08 13:04:00
8:12 AM,32.0,26.6,80,30.03,4.0,NNW,9.2,-,0.00,Snow,Light Snow,330,2013-03-08 13:12:00
8:50 AM,32.0,26.6,80,30.03,2.5,North,11.5,17.3,0.00,Snow,Light Snow,350,2013-03-08 13:50:00
8:53 AM,32.0,27.0,82,30.04,2.5,NNW,11.5,17.3,0.00,Snow,Light Snow,340,2013-03-08 13:53:00
9:23 AM,33.8,26.6,75,30.04,3.0,NNW,8.1,-,0.00,Snow,Light Snow,340,2013-03-08 14:23:00
9:31 AM,33.8,28.4,81,30.04,2.0,NNW,8.1,17.3,0.00,Snow,Light Snow,340,2013-03-08 14:31:00
9:39 AM,33.8,28.4,81,30.05,1.8,North,10.4,18.4,0.00,Snow,Light Snow,350,2013-03-08 14:39:00
9:53 AM,33.1,28.0,82,30.06,1.5,NNW,9.2,-,0.00,Snow,Light Snow,340,2013-03-08 14:53:00
10:53 AM,33.1,28.9,85,30.07,1.0,NNW,10.4,18.4,0.03,Snow,Light Snow,340,2013-03-08 15:53:00
11:53 AM,34.0,28.9,82,30.07,1.5,NNW,12.7,-,0.04,Snow,Light Snow,340,2013-03-08 16:53:00
12:05 PM,35.6,28.4,75,30.06,2.5,NNW,11.5,21.9,0.01,Snow,Light Snow,340,2013-03-08 17:05:00
12:30 PM,35.6,28.4,75,30.05,3.0,NNW,11.5,18.4,0.02,Snow,Light Snow,330,2013-03-08 17:30:00
12:38 PM,35.6,30.2,81,30.05,1.8,NNW,11.5,18.4,0.03,Snow,Light Snow,340,2013-03-08 17:38:00
12:53 PM,35.1,30.0,82,30.05,2.0,NNW,10.4,17.3,0.04,Snow,Light Snow,340,2013-03-08 17:53:00
1:04 PM,35.6,30.2,81,30.04,4.0,North,12.7,-,0.01,Snow,Light Snow,350,2013-03-08 18:04:00
1:48 PM,37.4,30.2,75,30.03,10.0,North,8.1,17.3,0.02,,Overcast,350,2013-03-08 18:48:00
1:53 PM,37.9,30.0,73,30.04,10.0,NNW,6.9,-,0.02,Rain,Light Rain,340,2013-03-08 18:53:00
2:06 PM,39.2,30.2,70,30.03,10.0,North,10.4,16.1,0.00,,Overcast,350,2013-03-08 19:06:00
2:33 PM,39.2,30.2,70,30.03,10.0,North,10.4,23.0,0.00,Rain,Light Rain,360,2013-03-08 19:33:00
2:44 PM,39.2,30.2,70,30.03,10.0,North,9.2,19.6,0.00,,Overcast,360,2013-03-08 19:44:00
2:53 PM,39.9,32.0,73,30.05,10.0,North,11.5,18.4,0.00,,Overcast,360,2013-03-08 19:53:00
3:53 PM,43.0,33.1,68,30.06,10.0,North,12.7,20.7,N/A,,Overcast,350,2013-03-08 20:53:00
4:53 PM,45.0,32.0,60,30.07,10.0,NW,12.7,19.6,N/A,,Overcast,320,2013-03-08 21:53:00
5:53 PM,44.1,30.0,58,30.11,10.0,NNW,12.7,19.6,N/A,,Overcast,340,2013-03-08 22:53:00
6:53 PM,43.0,28.0,56,30.14,10.0,NNW,11.5,18.4,N/A,,Mostly Cloudy,340,2013-03-08 23:53:00
7:53 PM,42.1,27.0,55,30.17,10.0,North,9.2,19.6,N/A,,Clear,350,2013-03-09 00:53:00
8:53 PM,41.0,25.0,53,30.19,10.0,Variable,6.9,-,N/A,,Clear,0,2013-03-09 01:53:00
9:53 PM,39.9,25.0,55,30.21,10.0,North,6.9,-,N/A,,Mostly Cloudy,350,2013-03-09 02:53:00
10:53 PM,37.9,24.1,57,30.21,10.0,NNW,8.1,-,N/A,,Clear,340,2013-03-09 03:53:00
11:53 PM,37.0,24.1,59,30.21,10.0,NNW,8.1,-,N/A,,Clear,330,2013-03-09 04:53:00